| time (UTC) | temp F | wind direction | speed MPH | gust MPH | rain 1hr in | rain 24hr in | rain mn in | humidity % | barometer mb |
| 20260506163210 | 48 | 210 | 18.0 | 0.0 | 0.00 | 0.00 | 0.01 | 87 | 1007.2 |
| 20260506160210 | 48 | 214 | 22.0 | 0.0 | 0.00 | 0.00 | 0.01 | 87 | 1007.1 |
| 20260506153210 | 47 | 231 | 32.0 | 0.0 | 0.00 | 0.00 | 0.01 | 89 | 1006.5 |
| 20260506150210 | 49 | 171 | 30.0 | 0.0 | 0.00 | 0.00 | 0.01 | 90 | 1005.6 |
| 20260506143210 | 57 | 209 | 10.0 | 0.0 | 0.00 | 0.00 | 0.00 | 78 | 1004.6 |
| 20260506140210 | 60 | 144 | 9.0 | 0.0 | 0.00 | 0.00 | 0.00 | 72 | 1004.3 |
| 20260506133211 | 56 | 42 | 6.0 | 0.0 | 0.00 | 0.00 | 0.00 | 82 | 1004.1 |
| 20260506130211 | 57 | 139 | 10.0 | 0.0 | 0.00 | 0.00 | 0.00 | 73 | 1005.1 |
| 20260506123210 | 59 | 98 | 7.0 | 0.0 | 0.00 | 0.00 | 0.00 | 65 | 1004.7 |
| 20260506120210 | 59 | 42 | 7.0 | 0.0 | 0.00 | 0.00 | 0.00 | 69 | 1004.4 |
| 20260506113217 | 58 | 65 | 10.0 | 0.0 | 0.00 | 0.00 | 0.00 | 70 | 1004.3 |
| 20260506110210 | 59 | 96 | 9.0 | 0.0 | 0.00 | 0.00 | 0.00 | 68 | 1004.7 |
| 20260506100213 | 57 | 67 | 8.0 | 0.0 | 0.00 | 0.00 | 0.00 | 73 | 1005.1 |
| 20260506093211 | 57 | 135 | 7.0 | 0.0 | 0.00 | 0.00 | 0.00 | 73 | 1005.5 |
| 20260506090211 | 56 | 5 | 1.0 | 0.0 | 0.00 | 0.00 | 0.00 | 71 | 1005.5 |
| 20260506083211 | 56 | 5 | 4.0 | 0.0 | 0.00 | 0.00 | 0.00 | 77 | 1005.1 |
| 20260506080212 | 54 | 248 | 2.0 | 0.0 | 0.00 | 0.00 | 0.00 | 80 | 1005.4 |
| 20260506073211 | 52 | 249 | 4.0 | 0.0 | 0.00 | 0.00 | 0.00 | 86 | 1005.2 |
| 20260506070212 | 52 | 238 | 3.0 | 0.0 | 0.00 | 0.00 | 0.00 | 86 | 1005.7 |
| 20260506060210 | 50 | 196 | 1.0 | 0.0 | 0.00 | 0.00 | 0.00 | 92 | 1005.5 |
| 20260506050211 | 45 | 169 | 2.0 | 0.0 | 0.00 | 0.00 | 0.00 | 93 | 1005.8 |
| 20260506043211 | 44 | 185 | 2.0 | 0.0 | 0.00 | 0.00 | 0.00 | 93 | 1006.1 |
| 20260506040211 | 45 | 225 | 4.0 | 0.0 | 0.00 | 0.00 | 0.00 | 93 | 1006.4 |
| 20260506033211 | 43 | 192 | 3.0 | 0.0 | 0.00 | 0.00 | 0.00 | 92 | 1006.6 |
| 20260506030212 | 45 | 211 | 5.0 | 0.0 | 0.00 | 0.00 | 0.00 | 92 | 1007.0 |
| 20260506023211 | 45 | 203 | 5.0 | 0.0 | 0.00 | 0.00 | 0.00 | 92 | 1007.1 |
| 20260506020212 | 46 | 236 | 3.0 | 0.0 | 0.00 | 0.00 | 0.00 | 91 | 1007.3 |
| 20260506013211 | 46 | 233 | 4.0 | 0.0 | 0.00 | 0.00 | 0.00 | 92 | 1007.5 |
| 20260506010213 | 48 | 222 | 7.0 | 0.0 | 0.00 | 0.00 | 0.00 | 90 | 1007.8 |
| 20260506003209 | 48 | 182 | 6.0 | 0.0 | 0.00 | 0.00 | 0.00 | 91 | 1007.8 |
| 20260506000211 | 48 | 211 | 5.0 | 0.0 | 0.00 | 0.00 | 0.00 | 91 | 1008.0 |
| 20260505233209 | 47 | 188 | 8.0 | 0.0 | 0.00 | 0.00 | 0.00 | 92 | 1008.4 |
| 20260505230209 | 48 | 196 | 8.0 | 0.0 | 0.00 | 0.00 | 0.00 | 91 | 1008.5 |
| 20260505223210 | 49 | 205 | 11.0 | 0.0 | 0.00 | 0.00 | 0.00 | 91 | 1008.7 |
| 20260505213211 | 48 | 179 | 10.0 | 0.0 | 0.00 | 0.00 | 0.09 | 92 | 1008.7 |
| 20260505210215 | 48 | 180 | 10.0 | 0.0 | 0.00 | 0.00 | 0.09 | 92 | 1008.8 |
| 20260505203209 | 49 | 177 | 9.0 | 0.0 | 0.00 | 0.00 | 0.09 | 91 | 1008.7 |
| 20260505200210 | 50 | 205 | 9.0 | 0.0 | 0.00 | 0.00 | 0.09 | 91 | 1008.8 |
| 20260505193209 | 51 | 210 | 15.0 | 0.0 | 0.00 | 0.00 | 0.05 | 87 | 1008.6 |
| 20260505190215 | 55 | 215 | 20.0 | 0.0 | 0.00 | 0.00 | 0.02 | 83 | 1008.0 |
| 20260505183212 | 55 | 232 | 11.0 | 0.0 | 0.00 | 0.00 | 0.02 | 87 | 1007.1 |
| 20260505180211 | 55 | 177 | 8.0 | 0.0 | 0.00 | 0.00 | 0.02 | 87 | 1007.0 |
| 20260505173210 | 56 | 211 | 10.0 | 0.0 | 0.00 | 0.00 | 0.02 | 84 | 1006.9 |
| 20260505170210 | 58 | 234 | 3.0 | 0.0 | 0.00 | 0.00 | 0.02 | 79 | 1006.3 |